STARLINK-1653, 46352

Orbit data source: Space-Track

STARLINK-1653, 46352 is a payload satellite owned by SpaceX/Seattle (US) in LEO that was launched on Thu, 03 Sep 2020 UTC via an FALCON 9 launch vehicle from the Air Force Eastern Test Range (AFETR). Payload-class satellites include a variety of spacecraft equipped with specific instruments for various scientific and technological missions. These include communications satellites like Starlink; space stations such as the ISS; scientific satellites like the Hubble; Earth observation satellites from companies like Planet Labs, Umbra, and HawkEye 360; GPS; miniature CubeSats for education and research; and military/defense satellites.

Loading next visibility...
Identifier
46352, 2020-062AD
Orbit
LEO
Last TLE update
8 hours ago
Origin
Manufacturer
SpaceX/Seattle
Mission
Operational Commercial Communications
Bus & Motor
STARLINK, Unknown motor
Mass
260 kg wet, ~248 kg dry
Launch date (UTC)
2020-09-03 (5 years ago)
Launch vehicle
FALCON 9
Launch site
Air Force Eastern Test Range (AFETR)
Object type
Payload
Rocket body
Debris
Shape & HBR
Box + 1 Pan, 8.86 m
Radar Cross Section
13.562 m², Large (>1 m²)

Expand to show TLE details & history

TLE from 8 hours ago
0 STARLINK-1653
1 46352U 20062AD  25183.88211872 -.00000396  00000-0 -76874-5 0  9993
2 46352  53.0560  38.0470 0001255  91.0651 269.0482 15.06401997266948
Epoch: 2025-07-02T21:10Z
TLE epoch observation values (Epoch: 2025-07-02T21:10:15.057Z)
Latitude
-0°
Longitude
159.32741°
Altitude
548.099 km
Speed
7.589 km/s
True Right ascension
02h 32m 11s
True Declination
0° 00' 00"
Sunlit
Object was in daylight at epoch
Visualization orbit readout
Latitude
-16.36401°
Longitude
145.16871°
Altitude
551.949 km
Speed
7.586 km/s
Apparent Right ascension
02h 56m 15s
Apparent Declination
-29° 37' 35"
Sunlit
Object is in daylight
Visualization observer readout
Local Sidereal Time
16:47:56
Azimuth
74.395° E
Elevation
-64.999°
Doppler factor
1
Orbital elements
Apogee altitude
548.345 km
Perigee altitude
546.607 km
Semi-major axis
6,925.613 km
Eccentricity
0.00013
Inclination
53.056°
RAAN
38.047°
Arg. of periapsis
91.0651°
True anomaly
Unknown
Mean anomaly
269.0482°
Eccentric anomaly
Unknown
Mean motion
3.76579 °/min
Orbital period
95.6 mins
BSTAR
-0.0000076874
Loading maneuver chart data...
Loading SW <> Apogee altitude chart data...
Loading historical data...
Loading historical data...
Loading historical data...
Loading historical data...
Loading historical data...
Loading historical data...
Loading historical data...

STARLINK-1653 Visibility forecast

Observer location: undefined°, undefined°

Span
Click to sort rows by Start time (UTC) header in descending order
Start Az.
Max El. time (UTC)
Max El. Az.
Max El.
End time (UTC)
End Az.
6 mins2025-07-03 16:26:29.902Z200.688° SSW2025-07-03 16:29:29.902Z133.903° SE34.405°2025-07-03 16:32:29.902Z66.928° ENE
6 mins2025-07-03 18:06:29.902Z276.156° WNW2025-07-03 18:09:29.902Z343.077° N27.071°2025-07-03 18:12:29.902Z33.208° NE
6 mins2025-07-03 23:08:29.902Z328.904° NNW2025-07-03 23:10:29.902Z13.885° NNE34.883°2025-07-03 23:14:29.902Z106.697° ESE
5 mins2025-07-04 00:48:29.902Z267.748° W2025-07-04 00:50:29.902Z223.935° SW23.07°2025-07-04 00:53:29.902Z175.182° S
|